WLF2662 RJFF-RCTP

Flight info

Callsign WLF2662
Flight time N/A
Altitude 28000
Route YAMGA HKC A1 DRAKE DRAKE1B
Aircraft A306/H-SDE3FGHIRWY/LB1

Departure

Time 2026-02-22 01:11
Airport Fukuoka Airport (RJFF)

Arrival

Time N/A
Airport Taiwan Taoyuan International Airport (RCTP)
Time Latitude Longitude Altitude Speed Heading
2026-02-22 00:29 33.58374 130.44643 39 ft 0 kts 235°
2026-02-22 00:56 33.58377 130.44649 66 ft 2 kts 235°
2026-02-22 00:56 33.58388 130.44668 38 ft 3 kts 249°
2026-02-22 00:56 33.58392 130.44690 36 ft 3 kts 274°
2026-02-22 00:57 33.58389 130.44713 37 ft 2 kts 293°
2026-02-22 00:57 33.58386 130.44720 36 ft 0 kts 296°
2026-02-22 01:03 33.58395 130.44713 36 ft 2 kts 328°
2026-02-22 01:03 33.58420 130.44702 38 ft 6 kts 339°
2026-02-22 01:04 33.58458 130.44695 38 ft 8 kts 355°
2026-02-22 01:04 33.58479 130.44719 37 ft 3 kts 80°
2026-02-22 01:04 33.58462 130.44759 38 ft 9 kts 127°
2026-02-22 01:04 33.58430 130.44816 39 ft 8 kts 114°
2026-02-22 01:05 33.58447 130.44893 39 ft 10 kts 38°
2026-02-22 01:05 33.58511 130.44923 38 ft 13 kts 29°
2026-02-22 01:05 33.58569 130.45012 40 ft 13 kts 60°
2026-02-22 01:05 33.58624 130.45130 40 ft 17 kts 60°
2026-02-22 01:06 33.58713 130.45199 38 ft 16 kts 356°
2026-02-22 01:06 33.58811 130.45148 37 ft 15 kts 330°
2026-02-22 01:06 33.58905 130.45085 35 ft 15 kts 332°
2026-02-22 01:06 33.58996 130.45023 36 ft 15 kts 328°
2026-02-22 01:07 33.59083 130.44957 35 ft 15 kts 329°
2026-02-22 01:07 33.59173 130.44898 34 ft 15 kts 332°
2026-02-22 01:07 33.59261 130.44838 34 ft 14 kts 330°
2026-02-22 01:07 33.59348 130.44779 33 ft 14 kts 330°
2026-02-22 01:08 33.59436 130.44719 32 ft 15 kts 328°
2026-02-22 01:08 33.59531 130.44653 32 ft 16 kts 330°
2026-02-22 01:08 33.59635 130.44587 31 ft 18 kts 332°
2026-02-22 01:08 33.59734 130.44509 29 ft 13 kts 294°
2026-02-22 01:09 33.59727 130.44424 29 ft 0 kts 240°
2026-02-22 01:09 33.59726 130.44422 29 ft 2 kts 240°
2026-02-22 01:09 33.59703 130.44382 31 ft 10 kts 224°
2026-02-22 01:10 33.59636 130.44365 29 ft 9 kts 167°
2026-02-22 01:10 33.59575 130.44405 30 ft 16 kts 149°
2026-02-22 01:10 33.59270 130.44611 32 ft 85 kts 152°
2026-02-22 01:10 33.58576 130.45084 42 ft 143 kts 147°
2026-02-22 01:11 33.57631 130.45717 526 ft 163 kts 157°
2026-02-22 01:11 33.56485 130.46199 1159 ft 185 kts 167°
2026-02-22 01:11 33.55225 130.46649 2037 ft 198 kts 162°
2026-02-22 01:11 33.53887 130.47458 2418 ft 234 kts 155°
2026-02-22 01:12 33.52450 130.48555 3134 ft 250 kts 153°
2026-02-22 01:12 33.50982 130.49672 4153 ft 251 kts 156°
2026-02-22 01:12 33.49457 130.50739 5162 ft 256 kts 158°
2026-02-22 01:12 33.47884 130.51776 6183 ft 260 kts 159°
2026-02-22 01:13 33.46267 130.52814 7172 ft 266 kts 159°
2026-02-22 01:13 33.44611 130.53855 8119 ft 272 kts 159°
2026-02-22 01:13 33.42914 130.54916 9097 ft 278 kts 159°
2026-02-22 01:13 33.41172 130.55998 10021 ft 285 kts 158°
2026-02-22 01:14 33.39371 130.57118 10635 ft 302 kts 158°
2026-02-22 01:14 33.37434 130.58315 10997 ft 324 kts 158°
2026-02-22 01:14 33.35370 130.59592 11346 ft 344 kts 158°
2026-02-22 01:14 33.33191 130.60941 11685 ft 363 kts 157°
2026-02-22 01:15 33.30891 130.62369 12072 ft 378 kts 157°
2026-02-22 01:15 33.28542 130.63830 12657 ft 385 kts 157°
2026-02-22 01:15 33.26146 130.65318 13330 ft 390 kts 157°
2026-02-22 01:15 33.23717 130.66824 14004 ft 395 kts 157°
2026-02-22 01:16 33.21270 130.68336 14621 ft 399 kts 157°
2026-02-22 01:16 33.18822 130.69852 15218 ft 404 kts 156°
2026-02-22 01:16 33.16280 130.71423 15891 ft 408 kts 157°
2026-02-22 01:16 33.13738 130.72958 16534 ft 411 kts 159°
2026-02-22 01:17 33.11110 130.74141 17143 ft 411 kts 168°
2026-02-22 01:17 33.08299 130.74723 17778 ft 409 kts 179°
2026-02-22 01:17 33.05456 130.74708 18340 ft 410 kts 187°
2026-02-22 01:17 33.02605 130.74431 18848 ft 412 kts 189°
2026-02-22 01:18 32.99747 130.74056 19385 ft 414 kts 191°
2026-02-22 01:18 32.96879 130.73649 19910 ft 416 kts 191°
2026-02-22 01:18 32.93992 130.73247 20412 ft 419 kts 191°
2026-02-22 01:18 32.91078 130.72860 20921 ft 422 kts 190°
2026-02-22 01:19 32.88154 130.72489 21413 ft 425 kts 190°
2026-02-22 01:19 32.85198 130.72126 21896 ft 428 kts 190°
2026-02-22 01:19 32.82221 130.71767 22377 ft 431 kts 190°
2026-02-22 01:19 32.79225 130.71408 22827 ft 434 kts 190°
2026-02-22 01:20 32.76205 130.71046 23264 ft 437 kts 190°
2026-02-22 01:20 32.73173 130.70681 23682 ft 440 kts 190°
2026-02-22 01:20 32.70116 130.70313 24025 ft 443 kts 190°
2026-02-22 01:20 32.67032 130.69940 24361 ft 446 kts 190°
2026-02-22 01:21 32.63947 130.69567 24681 ft 448 kts 190°
2026-02-22 01:21 32.60826 130.69191 25023 ft 451 kts 191°
2026-02-22 01:21 32.57701 130.68814 25337 ft 453 kts 191°
2026-02-22 01:21 32.54554 130.68435 25640 ft 456 kts 191°
2026-02-22 01:22 32.51395 130.68055 25939 ft 458 kts 191°
2026-02-22 01:22 32.48215 130.67671 26250 ft 460 kts 191°
2026-02-22 01:22 32.45021 130.67285 26556 ft 462 kts 191°
2026-02-22 01:22 32.41809 130.66899 26833 ft 465 kts 191°
2026-02-22 01:23 32.38586 130.66511 27131 ft 466 kts 191°
2026-02-22 01:23 32.35360 130.66124 27557 ft 465 kts 191°
2026-02-22 01:23 32.32136 130.65739 27987 ft 465 kts 192°
2026-02-22 01:23 32.28929 130.65356 28374 ft 464 kts 192°
2026-02-22 01:24 32.25713 130.64971 28771 ft 464 kts 192°
2026-02-22 01:24 32.22504 130.64587 29189 ft 464 kts 192°
2026-02-22 01:24 32.19288 130.64203 29604 ft 463 kts 192°
2026-02-22 01:24 32.16094 130.63818 30009 ft 463 kts 192°
2026-02-22 01:25 32.12927 130.63437 30351 ft 463 kts 193°
2026-02-22 01:25 32.09732 130.63054 30705 ft 462 kts 193°
2026-02-22 01:25 32.06502 130.62669 31059 ft 461 kts 193°
2026-02-22 01:25 32.03304 130.62288 31413 ft 460 kts 193°
2026-02-22 01:26 32.00122 130.61910 31780 ft 459 kts 193°
2026-02-22 01:26 31.96950 130.61532 32138 ft 458 kts 194°
2026-02-22 01:26 31.93784 130.61154 32501 ft 457 kts 194°
2026-02-22 01:26 31.90666 130.60783 32854 ft 456 kts 194°
2026-02-22 01:27 31.87504 130.60407 33213 ft 455 kts 194°
2026-02-22 01:27 31.84356 130.60033 33573 ft 454 kts 195°
2026-02-22 01:27 31.81220 130.59661 33922 ft 454 kts 195°
2026-02-22 01:27 31.78076 130.59283 34093 ft 454 kts 196°
2026-02-22 01:28 31.75003 130.58650 34109 ft 443 kts 203°
2026-02-22 01:28 31.72117 130.57530 34115 ft 432 kts 212°
2026-02-22 01:28 31.69482 130.55922 34115 ft 421 kts 220°
2026-02-22 01:29 31.65218 130.51497 34117 ft 404 kts 236°
2026-02-22 01:29 31.61746 130.46342 34119 ft 401 kts 238°
2026-02-22 01:30 31.58371 130.41124 34113 ft 401 kts 238°
2026-02-22 01:30 31.54980 130.35936 34117 ft 401 kts 238°
2026-02-22 01:31 31.51567 130.30766 34111 ft 401 kts 238°
2026-02-22 01:31 31.48142 130.25607 34110 ft 401 kts 238°
2026-02-22 01:32 31.44855 130.20664 34113 ft 401 kts 238°
2026-02-22 01:32 31.41427 130.15513 34102 ft 401 kts 238°
2026-02-22 01:33 31.37997 130.10353 34103 ft 401 kts 238°
2026-02-22 01:33 31.34598 130.05200 34101 ft 400 kts 238°
2026-02-22 01:34 31.31197 130.00032 34102 ft 400 kts 238°
2026-02-22 01:34 31.27798 129.94884 34112 ft 400 kts 238°
2026-02-22 01:35 31.24381 129.89761 34093 ft 400 kts 238°
2026-02-22 01:35 31.20952 129.84634 34091 ft 399 kts 238°
2026-02-22 01:36 31.17533 129.79525 34095 ft 399 kts 238°
2026-02-22 01:36 31.14140 129.74461 34105 ft 399 kts 238°
2026-02-22 01:37 31.10718 129.69359 34112 ft 398 kts 238°
2026-02-22 01:37 31.07304 129.64275 34095 ft 398 kts 238°
2026-02-22 01:38 31.03895 129.59206 34103 ft 397 kts 238°
2026-02-22 01:38 31.00486 129.54142 34102 ft 396 kts 238°
2026-02-22 01:39 30.97083 129.49096 34104 ft 396 kts 238°
2026-02-22 01:39 30.93682 129.44058 34105 ft 395 kts 238°
2026-02-22 01:40 30.90284 129.39030 34098 ft 395 kts 238°
2026-02-22 01:40 30.86887 129.34009 34101 ft 394 kts 238°
2026-02-22 01:41 30.83490 129.28997 34100 ft 394 kts 238°
2026-02-22 01:41 30.80098 129.23997 34102 ft 393 kts 238°
2026-02-22 01:42 30.76720 129.19002 34101 ft 392 kts 238°
2026-02-22 01:42 30.73404 129.13969 34100 ft 391 kts 239°
2026-02-22 01:43 30.70121 129.08948 34102 ft 390 kts 239°
2026-02-22 01:43 30.65183 129.01427 34105 ft 390 kts 239°
2026-02-22 01:44 30.62453 128.97283 34103 ft 389 kts 239°
2026-02-22 01:44 30.58623 128.91479 34102 ft 389 kts 239°
2026-02-22 01:45 30.55871 128.87314 34100 ft 388 kts 239°
2026-02-22 01:45 30.52582 128.82342 34100 ft 388 kts 239°
2026-02-22 01:46 30.49302 128.77388 34096 ft 387 kts 239°
2026-02-22 01:46 30.46019 128.72437 34099 ft 387 kts 239°
2026-02-22 01:47 30.42741 128.67498 34108 ft 386 kts 239°
2026-02-22 01:47 30.39482 128.62596 34103 ft 386 kts 239°
2026-02-22 01:48 30.36207 128.57675 34104 ft 386 kts 239°
2026-02-22 01:48 30.32931 128.52758 34099 ft 385 kts 239°
2026-02-22 01:49 30.29656 128.47848 34100 ft 385 kts 239°
2026-02-22 01:49 30.26378 128.42941 34107 ft 385 kts 239°
2026-02-22 01:50 30.23102 128.38043 34103 ft 385 kts 239°
2026-02-22 01:50 30.19820 128.33142 34102 ft 385 kts 239°
2026-02-22 01:51 30.16547 128.28259 34106 ft 385 kts 239°
2026-02-22 01:51 30.13267 128.23373 34100 ft 384 kts 239°
2026-02-22 01:52 30.09991 128.18498 34095 ft 384 kts 239°
2026-02-22 01:52 30.06721 128.13637 34098 ft 383 kts 239°
2026-02-22 01:53 30.03448 128.08779 34098 ft 383 kts 239°
2026-02-22 01:53 30.00179 128.03932 34095 ft 382 kts 239°
2026-02-22 01:54 29.96908 127.99088 34101 ft 382 kts 239°
2026-02-22 01:54 29.93641 127.94256 34098 ft 382 kts 239°
2026-02-22 01:55 29.90374 127.89429 34097 ft 382 kts 239°
2026-02-22 01:55 29.87120 127.84629 34094 ft 382 kts 239°
2026-02-22 01:56 29.83732 127.79896 34102 ft 384 kts 237°
2026-02-22 01:56 29.80242 127.75244 34096 ft 384 kts 237°
2026-02-22 01:57 29.76746 127.70597 34098 ft 384 kts 237°
2026-02-22 01:57 29.73263 127.65943 34097 ft 384 kts 237°
2026-02-22 01:58 29.69787 127.61288 34095 ft 383 kts 237°
2026-02-22 01:58 29.66314 127.56640 34092 ft 383 kts 237°
2026-02-22 01:59 29.62841 127.51999 34096 ft 383 kts 237°
2026-02-22 01:59 29.59368 127.47362 34095 ft 383 kts 237°
2026-02-22 02:00 29.56002 127.42651 34095 ft 381 kts 239°
2026-02-22 02:00 29.52733 127.37878 34097 ft 380 kts 239°
2026-02-22 02:01 29.49462 127.33102 34099 ft 380 kts 239°
2026-02-22 02:01 29.46182 127.28348 34098 ft 380 kts 239°
2026-02-22 02:02 29.42891 127.23596 34095 ft 380 kts 239°
2026-02-22 02:02 29.39619 127.18882 34097 ft 380 kts 239°
2026-02-22 02:03 29.36328 127.14144 34096 ft 380 kts 239°
2026-02-22 02:03 29.33022 127.09389 34098 ft 379 kts 239°
2026-02-22 02:04 29.29760 127.04703 34094 ft 379 kts 239°
2026-02-22 02:04 29.26474 126.99985 34095 ft 379 kts 239°
2026-02-22 02:05 29.23179 126.95260 34095 ft 379 kts 239°
2026-02-22 02:05 29.19886 126.90545 34093 ft 379 kts 238°
2026-02-22 02:06 29.16589 126.85830 34095 ft 379 kts 238°
2026-02-22 02:06 29.13291 126.81119 34097 ft 379 kts 238°
2026-02-22 02:07 29.09999 126.76420 34091 ft 379 kts 238°
2026-02-22 02:07 29.06699 126.71716 34089 ft 379 kts 238°
2026-02-22 02:08 29.03395 126.67012 34089 ft 379 kts 238°
2026-02-22 02:08 29.00091 126.62314 34100 ft 379 kts 238°
2026-02-22 02:09 28.96785 126.57631 34086 ft 380 kts 238°
2026-02-22 02:09 28.93390 126.52997 34096 ft 380 kts 237°
2026-02-22 02:10 28.89964 126.48400 34097 ft 380 kts 237°
2026-02-22 02:10 28.86537 126.43798 34091 ft 380 kts 237°
2026-02-22 02:11 28.83117 126.39197 34093 ft 380 kts 237°
2026-02-22 02:11 28.79704 126.34604 34094 ft 380 kts 237°
2026-02-22 02:12 28.76279 126.30000 34097 ft 380 kts 237°
2026-02-22 02:12 28.72861 126.25413 34087 ft 380 kts 237°
2026-02-22 02:13 28.69459 126.20851 34093 ft 380 kts 237°
2026-02-22 02:13 28.66008 126.16229 34096 ft 380 kts 237°
2026-02-22 02:14 28.62628 126.11659 34094 ft 379 kts 238°
2026-02-22 02:14 28.59290 126.06960 34094 ft 379 kts 239°
2026-02-22 02:15 28.56000 126.02286 34089 ft 379 kts 239°
2026-02-22 02:15 28.52723 125.97650 34093 ft 379 kts 239°
2026-02-22 02:16 28.49412 125.92987 34092 ft 379 kts 238°